Wrangell, AK

3:37 AM AKDT on March 28, 2017 (GMT -0800)
Wrangell

Weather History for PAWG - January, 2012

Change the Weather History Date:

Thursday, January 12, 2012

  Actual Average Record
Temperature  
Mean Temperature 37 °F -  
Max Temperature 39 °F 30 °F 48 °F (1986)
Min Temperature 35 °F 21 °F 0 °F (1972)
Degree Days  
Heating Degree Days 28    
Moisture  
Dew Point 33 °F    
Average Humidity 83    
Maximum Humidity 93    
Minimum Humidity 75    
Precipitation  
Precipitation 0.00 in - - ()
Sea Level Pressure  
Sea Level Pressure 29.89 in    
Wind  
Wind Speed 18 mph (SE)    
Max Wind Speed 29 mph    
Max Gust Speed 38 mph    
Visibility 9 miles    
Events      
Averages and records for this station are not official NWS values.
T = Trace of Precipitation, MM = Missing Value Source: NWS Daily Summary

Daily Weather History Graph

Daily Weather History Graph

Search for Another Location

Airport or City:

Trip Planner

Search our weather history database for the weather conditions in past years. The results will help you decide how hot, cold, wet, or windy it might be!

Date:

Astronomy

Jan. 12, 2012 Rise Set
Actual Time 8:16 AM AKST 3:38 PM AKST
Civil Twilight 7:30 AM AKST 4:24 PM AKST
Nautical Twilight 6:42 AM AKST 5:13 PM AKST
Astronomical Twilight 5:57 AM AKST 5:58 PM AKST
Moon 8:52 PM AKST (1/12) 9:11 AM AKST (1/12)
Length of Visible Light 8h 54m
Length of Day
7h 21m
Waning Gibbous, 86% of the Moon is Illuminated
Jan 12
Waning Gibbous
Jan 16
Last Quarter
Jan 22
New
Jan 30
First Quarter
Feb 7
Full

Hourly Weather History & Observations

Time (AKST) Temp. Windchill Dew Point Humidity Pressure Visibility Wind Dir Wind Speed Gust Speed Precip Events Conditions
12:16 AM 37.4 °F 26.6 °F 32.0 °F 81% 30.07 in 10.0 mi SE 21.9 mph 27.6 mph N/A   Overcast
12:36 AM 37.4 °F 26.9 °F 32.0 °F 81% 30.05 in 10.0 mi SE 20.7 mph 28.8 mph N/A   Overcast
12:56 AM 37.4 °F 26.1 °F 30.2 °F 75% 30.03 in 10.0 mi SE 24.2 mph 29.9 mph N/A   Overcast
1:16 AM 37.4 °F 25.6 °F 32.0 °F 81% 30.01 in 10.0 mi SE 26.5 mph 33.4 mph N/A   Overcast
1:36 AM 37.4 °F 26.9 °F 32.0 °F 81% 30.01 in 7.0 mi SE 20.7 mph 29.9 mph N/A   Overcast
1:56 AM 37.4 °F 26.1 °F 30.2 °F 75% 30.00 in 5.0 mi SE 24.2 mph 29.9 mph N/A   Overcast
2:16 AM 37.4 °F 27.2 °F 33.8 °F 87% 29.99 in 7.0 mi SE 19.6 mph 27.6 mph N/A   Overcast
2:36 AM 37.4 °F 26.9 °F 32.0 °F 81% 29.97 in 8.0 mi SE 20.7 mph 27.6 mph N/A   Overcast
2:56 AM 37.4 °F 26.9 °F 30.2 °F 75% 29.96 in 8.0 mi SE 20.7 mph 25.3 mph N/A   Overcast
3:16 AM 37.4 °F 27.2 °F 32.0 °F 81% 29.95 in 9.0 mi SE 19.6 mph 27.6 mph N/A   Overcast
3:36 AM 37.4 °F 27.5 °F 30.2 °F 75% 29.94 in 10.0 mi SE 18.4 mph 25.3 mph N/A   Overcast
3:56 AM 37.4 °F 26.4 °F 30.2 °F 75% 29.92 in 10.0 mi SE 23.0 mph 27.6 mph N/A   Overcast
4:16 AM 37.4 °F 26.4 °F 32.0 °F 81% 29.91 in 10.0 mi SE 23.0 mph 28.8 mph N/A   Overcast
4:36 AM 37.4 °F 27.2 °F 30.2 °F 75% 29.90 in 10.0 mi ESE 19.6 mph 24.2 mph N/A   Overcast
4:56 AM 37.4 °F 26.4 °F 32.0 °F 81% 29.88 in 10.0 mi ESE 23.0 mph - N/A   Overcast
5:16 AM 37.4 °F 27.2 °F 33.8 °F 87% 29.87 in 10.0 mi ESE 19.6 mph 25.3 mph N/A   Overcast
5:36 AM 37.4 °F 27.2 °F 32.0 °F 81% 29.85 in 10.0 mi ESE 19.6 mph 28.8 mph N/A   Overcast
5:56 AM 37.4 °F 26.4 °F 30.2 °F 75% 29.82 in 10.0 mi ESE 23.0 mph 31.1 mph N/A   Overcast
6:16 AM 37.4 °F 25.6 °F 33.8 °F 87% 29.80 in 10.0 mi SE 26.5 mph 38.0 mph N/A   Overcast
6:36 AM 37.4 °F 26.1 °F 32.0 °F 81% 29.80 in 10.0 mi SE 24.2 mph 36.8 mph N/A   Overcast
6:56 AM 37.4 °F 25.2 °F 30.2 °F 75% 29.78 in 10.0 mi SE 28.8 mph 34.5 mph N/A   Overcast
7:16 AM 37.4 °F 25.9 °F 32.0 °F 81% 29.78 in 10.0 mi SE 25.3 mph 32.2 mph N/A   Overcast
7:36 AM 37.4 °F 25.9 °F 33.8 °F 87% 29.77 in 10.0 mi SE 25.3 mph 33.4 mph N/A   Overcast
7:56 AM 37.4 °F 26.6 °F 32.0 °F 81% 29.77 in 10.0 mi ESE 21.9 mph 33.4 mph N/A   Overcast
8:16 AM 37.4 °F 26.4 °F 32.0 °F 81% 29.77 in 10.0 mi ESE 23.0 mph 36.8 mph N/A   Overcast
8:36 AM 37.4 °F 26.4 °F 32.0 °F 81% 29.78 in 10.0 mi ESE 23.0 mph 34.5 mph N/A   Overcast
8:56 AM 37.4 °F 26.9 °F 33.8 °F 87% 29.79 in 10.0 mi ESE 20.7 mph 29.9 mph N/A   Overcast
9:16 AM 37.4 °F 26.6 °F 33.8 °F 87% 29.80 in 10.0 mi ESE 21.9 mph 27.6 mph N/A   Overcast
9:36 AM 37.4 °F 27.8 °F 33.8 °F 87% 29.82 in 10.0 mi ESE 17.3 mph 24.2 mph N/A   Overcast
9:56 AM 37.4 °F 30.8 °F 33.8 °F 87% 29.84 in 10.0 mi South 9.2 mph 18.4 mph N/A   Overcast
10:16 AM 37.4 °F 32.8 °F 33.8 °F 87% 29.84 in 10.0 mi SSE 5.8 mph - N/A   Overcast
10:36 AM 37.4 °F 30.8 °F 33.8 °F 87% 29.84 in 10.0 mi East 9.2 mph - N/A   Overcast
10:56 AM 37.4 °F 32.8 °F 33.8 °F 87% 29.85 in 10.0 mi ESE 5.8 mph - N/A   Overcast
11:16 AM 37.4 °F - 33.8 °F 87% 29.85 in 10.0 mi Calm Calm - N/A   Overcast
11:36 AM 37.4 °F 33.8 °F 33.8 °F 87% 29.86 in 10.0 mi WSW 4.6 mph - N/A   Overcast
11:56 AM 37.4 °F 34.9 °F 33.8 °F 87% 29.87 in 7.0 mi SSE 3.5 mph 17.3 mph N/A   Overcast
12:16 PM 37.4 °F 32.1 °F 33.8 °F 87% 29.88 in 7.0 mi SSE 6.9 mph - N/A   Overcast
12:36 PM 37.4 °F 31.4 °F 32.0 °F 81% 29.88 in 7.0 mi South 8.1 mph - N/A   Overcast
12:56 PM 39.2 °F 33.6 °F 33.8 °F 81% 29.89 in 10.0 mi SE 8.1 mph - N/A   Overcast
1:16 PM 35.6 °F 28.6 °F 33.8 °F 93% 29.89 in 10.0 mi SE 9.2 mph - N/A   Overcast
1:36 PM 37.4 °F 28.9 °F 33.8 °F 87% 29.89 in 10.0 mi ESE 13.8 mph - N/A   Overcast
1:56 PM 39.2 °F 34.2 °F 32.0 °F 75% 29.90 in 10.0 mi SE 6.9 mph 17.3 mph N/A   Mostly Cloudy
2:16 PM 37.4 °F 30.3 °F 33.8 °F 87% 29.90 in 10.0 mi ESE 10.4 mph - N/A   Mostly Cloudy
2:36 PM 37.4 °F 32.8 °F 33.8 °F 87% 29.91 in 10.0 mi SSE 5.8 mph - N/A   Mostly Cloudy
2:56 PM 37.4 °F 31.4 °F 32.0 °F 81% 29.91 in 10.0 mi South 8.1 mph - N/A   Mostly Cloudy
3:16 PM 37.4 °F 34.9 °F 33.8 °F 87% 29.91 in 10.0 mi South 3.5 mph - N/A   Mostly Cloudy
3:36 PM 37.4 °F 30.8 °F 33.8 °F 87% 29.91 in 10.0 mi ESE 9.2 mph - N/A   Mostly Cloudy
3:56 PM 37.4 °F 30.3 °F 33.8 °F 87% 29.91 in 7.0 mi ESE 10.4 mph - N/A   Overcast
4:16 PM 35.6 °F - 32.0 °F 87% 29.92 in 7.0 mi Calm Calm - N/A   Overcast
4:36 PM 37.4 °F 33.8 °F 32.0 °F 81% 29.93 in 7.0 mi NW 4.6 mph - N/A   Overcast
4:56 PM 37.4 °F 32.8 °F 33.8 °F 87% 29.94 in 9.0 mi South 5.8 mph - N/A   Overcast
5:16 PM 37.4 °F 32.8 °F 32.0 °F 81% 29.94 in 9.0 mi South 5.8 mph - N/A   Overcast
5:36 PM 37.4 °F 30.8 °F 32.0 °F 81% 29.96 in 9.0 mi SSW 9.2 mph - N/A   Overcast
5:56 PM 37.4 °F 29.8 °F 32.0 °F 81% 29.97 in 9.0 mi WSW 11.5 mph 16.1 mph N/A   Overcast
6:16 PM 37.4 °F 29.8 °F 32.0 °F 81% 29.98 in 9.0 mi WSW 11.5 mph - N/A   Overcast
6:36 PM 35.6 °F 29.2 °F 32.0 °F 87% 29.99 in 9.0 mi SW 8.1 mph - N/A   Overcast
6:56 PM 35.6 °F 25.9 °F 30.2 °F 81% 30.00 in 9.0 mi SSW 16.1 mph 25.3 mph N/A   Overcast
7:16 PM 35.6 °F - 30.2 °F 81% 30.01 in 9.0 mi Calm Calm - N/A   Overcast
7:36 PM 35.6 °F 28.6 °F 28.4 °F 75% 30.02 in 9.0 mi SSW 9.2 mph - N/A   Overcast
7:56 PM 33.8 °F 27.0 °F 30.2 °F 87% 30.04 in 9.0 mi SSW 8.1 mph - N/A   Overcast
8:16 PM 35.6 °F 29.2 °F 26.6 °F 70% 30.05 in 9.0 mi WSW 8.1 mph - N/A   Overcast
8:36 PM 35.6 °F 32.8 °F 26.6 °F 70% 30.06 in 9.0 mi SE 3.5 mph - N/A   Overcast
8:56 PM 35.6 °F - 26.6 °F 70% 30.07 in 10.0 mi Calm Calm - N/A   Overcast
9:16 PM 35.6 °F 32.8 °F 26.6 °F 70% 30.09 in 10.0 mi ESE 3.5 mph - N/A   Overcast
9:36 PM 35.6 °F 30.7 °F 26.6 °F 70% 30.10 in 10.0 mi SSW 5.8 mph - N/A   Overcast
9:56 PM 35.6 °F 29.9 °F 24.8 °F 65% 30.11 in 10.0 mi SSW 6.9 mph - N/A   Overcast
10:16 PM 35.6 °F 29.9 °F 24.8 °F 65% 30.12 in 10.0 mi South 6.9 mph - N/A   Overcast
10:36 PM 35.6 °F 31.7 °F 26.6 °F 70% 30.12 in 10.0 mi South 4.6 mph - N/A   Overcast
10:56 PM 35.6 °F - 24.8 °F 65% 30.12 in 10.0 mi Calm Calm - N/A   Overcast
11:16 PM 33.8 °F - 26.6 °F 75% 30.13 in 10.0 mi Calm Calm - N/A   Overcast
11:36 PM 33.8 °F 28.6 °F 24.8 °F 70% 30.13 in 10.0 mi SW 5.8 mph - N/A   Overcast
11:56 PM 33.8 °F 28.6 °F 26.6 °F 75% 30.14 in 10.0 mi South 5.8 mph - N/A   Overcast